Greenwood, SC

7:06 AM EDT on June 24, 2017 (GMT -0400)
Greenwood County

Weather History for KGRD - September, 2012

Change the Weather History Date:

Friday, September 7, 2012

  Actual Average (KAND) Record (KAND)
Temperature  
Mean Temperature 78 °F -  
Max Temperature 88 °F 85 °F 96 °F (1954)
Min Temperature 69 °F 65 °F 56 °F (1984)
Cooling Degree Days 14    
Growing Degree Days 28 (Base 50)    
Moisture  
Dew Point 71 °F    
Average Humidity 82    
Maximum Humidity 97    
Minimum Humidity 57    
Precipitation  
Precipitation 0.00 in - - ()
Sea Level Pressure  
Sea Level Pressure 29.94 in    
Wind  
Wind Speed 2 mph (NNE)    
Max Wind Speed 8 mph    
Max Gust Speed -    
Visibility 10 miles    
Events      
Averages and records for this station are not official NWS values.
T = Trace of Precipitation, MM = Missing Value Source: NWS Daily Summary

Daily Weather History Graph

Daily Weather History Graph

Search for Another Location

Airport or City:

Trip Planner

Search our weather history database for the weather conditions in past years. The results will help you decide how hot, cold, wet, or windy it might be!

Date:

Astronomy

Sep. 07, 2012 Rise Set
Actual Time 7:06 AM EDT 7:45 PM EDT
Civil Twilight 6:41 AM EDT 8:11 PM EDT
Nautical Twilight 6:11 AM EDT 8:40 PM EDT
Astronomical Twilight 5:40 AM EDT 9:11 PM EDT
Moon 11:59 PM EDT (9/7) 1:38 PM EDT (9/7)
Length of Visible Light 13h 29m
Length of Day
12h 39m
Waning Gibbous, 58% of the Moon is Illuminated
Sep 7
Waning Gibbous
Sep 8
Last Quarter
Sep 15
New
Sep 22
First Quarter
Sep 29
Full

Hourly Weather History & Observations

Time (EDT) Temp. Heat Index Dew Point Humidity Pressure Visibility Wind Dir Wind Speed Gust Speed Precip Events Conditions
12:56 AM 72.0 °F - 70.0 °F 93% 29.94 in 10.0 mi SSW 3.5 mph - N/A   Clear
2:56 AM 71.1 °F - 70.0 °F 96% 29.93 in 10.0 mi Calm Calm - N/A   Partly Cloudy
3:56 AM 71.1 °F - 69.1 °F 93% 29.93 in 9.0 mi Calm Calm - N/A   Clear
4:56 AM 70.0 °F - 69.1 °F 97% 29.92 in 9.0 mi Calm Calm - N/A   Clear
5:56 AM 70.0 °F - 68.0 °F 93% 29.94 in 8.0 mi Calm Calm - N/A   Clear
6:53 AM 69.8 °F - 68.0 °F 94% 29.97 in 8.0 mi Calm Calm - N/A   Mostly Cloudy
6:56 AM 69.1 °F - 68.0 °F 96% 29.95 in 9.0 mi Calm Calm - N/A   Mostly Cloudy
7:18 AM 69.8 °F - 68.0 °F 94% 29.97 in 8.0 mi Calm Calm - N/A   Scattered Clouds
7:56 AM 71.1 °F - 69.1 °F 93% 29.96 in 8.0 mi Calm Calm - N/A   Clear
8:52 AM 73.4 °F - 69.8 °F 88% 29.99 in 10.0 mi NNE 3.5 mph - N/A   Partly Cloudy
8:56 AM 73.9 °F - 70.0 °F 87% 29.97 in 10.0 mi NNE 3.5 mph - N/A   Partly Cloudy
9:46 AM 77.0 °F - 71.6 °F 83% 30.01 in 10.0 mi NNW 6.9 mph - N/A   Mostly Cloudy
9:56 AM 73.9 °F - 70.0 °F 87% 30.00 in 10.0 mi Variable 5.8 mph - N/A   Overcast
10:56 AM 75.0 °F - 71.1 °F 87% 30.00 in 10.0 mi NE 4.6 mph - N/A   Overcast
11:56 AM 80.1 °F 83.6 °F 71.1 °F 74% 29.99 in 10.0 mi Variable 5.8 mph - N/A   Scattered Clouds
12:56 PM 82.9 °F 88.8 °F 73.0 °F 72% 29.97 in 10.0 mi Calm Calm - N/A   Partly Cloudy
1:52 PM 84.2 °F 90.9 °F 73.4 °F 70% 29.98 in 10.0 mi NE 3.5 mph - N/A   Mostly Cloudy
1:56 PM 84.9 °F 90.7 °F 72.0 °F 65% 29.96 in 10.0 mi North 3.5 mph - N/A   Mostly Cloudy
2:19 PM 87.8 °F 95.6 °F 73.4 °F 62% 29.97 in 10.0 mi NNE 4.6 mph - N/A   Mostly Cloudy
2:53 PM 87.8 °F 95.6 °F 73.4 °F 62% 29.96 in 10.0 mi Calm Calm - N/A   Partly Cloudy
2:56 PM 87.1 °F 94.5 °F 73.0 °F 63% 29.93 in 10.0 mi Variable 5.8 mph - N/A   Partly Cloudy
3:56 PM 86.0 °F 92.2 °F 72.0 °F 63% 29.91 in 10.0 mi North 8.1 mph - N/A   Partly Cloudy
4:56 PM 88.0 °F 93.8 °F 71.1 °F 57% 29.89 in 10.0 mi NNE 5.8 mph - N/A   Clear
5:56 PM 87.1 °F 92.0 °F 70.0 °F 57% 29.88 in 10.0 mi Calm Calm - N/A   Clear
6:56 PM 84.0 °F 90.2 °F 73.0 °F 69% 29.88 in 10.0 mi East 3.5 mph - N/A   Clear
7:56 PM 79.0 °F - 72.0 °F 79% 29.88 in 10.0 mi Calm Calm - N/A   Clear
8:56 PM 75.0 °F - 72.0 °F 90% 29.88 in 10.0 mi Calm Calm - N/A   Clear
9:56 PM 73.9 °F - 72.0 °F 93% 29.88 in 10.0 mi SSE 3.5 mph - N/A   Clear
10:56 PM 73.0 °F - 71.1 °F 93% 29.88 in 9.0 mi Calm Calm - N/A   Clear
11:56 PM 72.0 °F - 71.1 °F 97% 29.87 in 6.0 mi Calm Calm - N/A   Clear